,,,PA_Meas_PMT16A,,PR_Meas_QMR101_102,,RH_Meas_QMH101,,SR_Meas_QMS101,,TA_Meas_QMH101,,GenWind,,GenWind,
date,time,status,PA,status,PR,status,RH,status,SR,status,TA,status,DirAvg,status,SpdAvg,
2008-09-12, 00:00:05,VALID,1004.51,VALID,0,VALID,95.4449,VALID,0,VALID,23.5496,VALID,354,VALID,0,
2008-09-12, 00:01:05,VALID,1004.52,VALID,0,VALID,95.506,VALID,0,VALID,23.5885,VALID,354,VALID,0,
2008-09-12, 00:02:05,VALID,1004.5,VALID,0,VALID,95.5517,VALID,0,VALID,23.608,VALID,354,VALID,0,
2008-09-12, 00:03:04,VALID,1004.48,VALID,0,VALID,95.5822,VALID,0,VALID,23.6469,VALID,354,VALID,0,
2008-09-12, 00:04:04,VALID,1004.45,VALID,0,VALID,95.5288,VALID,0,VALID,23.6257,VALID,354,VALID,0,
2008-09-12, 00:05:04,VALID,1004.43,VALID,0,VALID,95.4526,VALID,0,VALID,23.6275,VALID,354,VALID,0,
2008-09-12, 00:06:04,VALID,1004.44,VALID,0,VALID,95.4144,VALID,0,VALID,23.5868,VALID,354,VALID,0,
2008-09-12, 00:07:04,VALID,1004.45,VALID,0,VALID,95.3763,VALID,0,VALID,23.5673,VALID,354,VALID,0,
2008-09-12, 00:08:04,VALID,1004.44,VALID,0,VALID,95.3686,VALID,0,VALID,23.5478,VALID,354,VALID,0,
2008-09-12, 00:09:04,VALID,1004.44,VALID,0,VALID,95.3686,VALID,0,VALID,23.5478,VALID,354,VALID,0,
2008-09-12, 00:10:04,VALID,1004.41,VALID,0,VALID,95.4602,VALID,0,VALID,23.5673,VALID,354,VALID,0,
2008-09-12, 00:11:04,VALID,1004.45,VALID,0,VALID,95.4831,VALID,0,VALID,23.6062,VALID,354,VALID,0,
2008-09-12, 00:12:04,VALID,1004.43,VALID,0,VALID,95.4907,VALID,0,VALID,23.6062,VALID,354,VALID,0,
2008-09-12, 00:13:04,VALID,1004.4,VALID,0,VALID,95.4526,VALID,0,VALID,23.6062,VALID,354,VALID,0,
2008-09-12, 00:14:04,VALID,1004.39,VALID,0,VALID,95.4526,VALID,0,VALID,23.6062,VALID,354,VALID,0,
2008-09-12, 00:15:04,VALID,1004.41,VALID,0,VALID,95.5517,VALID,0,VALID,23.6664,VALID,354,VALID,0,
2008-09-12, 00:16:04,VALID,1004.37,VALID,0,VALID,95.5365,VALID,0,VALID,23.6452,VALID,354,VALID,0,
2008-09-12, 00:17:04,VALID,1004.34,VALID,0,VALID,95.4602,VALID,0,VALID,23.6452,VALID,354,VALID,0,
2008-09-12, 00:18:04,VALID,1004.31,VALID,0,VALID,95.3991,VALID,0,VALID,23.6257,VALID,354,VALID,0,
2008-09-12, 00:19:04,VALID,1004.31,VALID,0,VALID,95.4373,VALID,0,VALID,23.6275,VALID,354,VALID,0,
2008-09-12, 00:20:04,VALID,1004.28,VALID,0,VALID,95.4297,VALID,0,VALID,23.6062,VALID,354,VALID,0,
2008-09-12, 00:21:04,VALID,1004.27,VALID,0,VALID,95.4144,VALID,0,VALID,23.5868,VALID,354,VALID,0,
2008-09-12, 00:22:04,VALID,1004.23,VALID,0,VALID,95.3839,VALID,0,VALID,23.5885,VALID,354,VALID,0,
2008-09-12, 00:23:04,VALID,1004.22,VALID,0,VALID,95.2923,VALID,0,VALID,23.5496,VALID,354,VALID,0,
2008-09-12, 00:24:04,VALID,1004.19,VALID,0,VALID,95.2313,VALID,0,VALID,23.5107,VALID,354,VALID,0,
2008-09-12, 00:25:04,VALID,1004.15,VALID,0,VALID,95.2313,VALID,0,VALID,23.4718,VALID,354,VALID,0,
2008-09-12, 00:26:04,VALID,1004.14,VALID,0,VALID,95.2695,VALID,0,VALID,23.4523,VALID,354,VALID,0,
2008-09-12, 00:27:04,VALID,1004.12,VALID,0,VALID,95.2618,VALID,0,VALID,23.4328,VALID,354,VALID,0,
2008-09-12, 00:28:04,VALID,1004.08,VALID,0,VALID,95.3991,VALID,0,VALID,23.4328,VALID,354,VALID,0,
2008-09-12, 00:29:04,VALID,1004.05,VALID,0,VALID,95.5212,VALID,0,VALID,23.4505,VALID,354,VALID,0,
2008-09-12, 00:30:04,VALID,1004.03,VALID,0,VALID,95.4831,VALID,0,VALID,23.4505,VALID,354,VALID,0,
2008-09-12, 00:31:04,VALID,1004.01,VALID,0,VALID,95.4831,VALID,0,VALID,23.4912,VALID,354,VALID,0,
2008-09-12, 00:32:04,VALID,1003.98,VALID,0,VALID,95.4678,VALID,0,VALID,23.4912,VALID,354,VALID,0,
2008-09-12, 00:33:04,VALID,1003.98,VALID,0,VALID,95.4754,VALID,0,VALID,23.47,VALID,354,VALID,0,
2008-09-12, 00:34:04,VALID,1003.97,VALID,0,VALID,95.4602,VALID,0,VALID,23.4718,VALID,354,VALID,0,
2008-09-12, 00:35:04,VALID,1003.97,VALID,0,VALID,95.4754,VALID,0,VALID,23.4718,VALID,354,VALID,0,
2008-09-12, 00:36:04,VALID,1003.98,VALID,0,VALID,95.506,VALID,0,VALID,23.4505,VALID,354,VALID,0,
2008-09-12, 00:37:04,VALID,1003.97,VALID,0,VALID,95.5365,VALID,0,VALID,23.4718,VALID,354,VALID,0,
2008-09-12, 00:38:04,VALID,1003.95,VALID,0,VALID,95.5822,VALID,0,VALID,23.5107,VALID,354,VALID,0,
2008-09-12, 00:39:04,VALID,1003.95,VALID,0,VALID,95.5746,VALID,0,VALID,23.5107,VALID,354,VALID,0,
2008-09-12, 00:40:04,VALID,1003.96,VALID,0,VALID,95.567,VALID,0,VALID,23.4894,VALID,354,VALID,0,
2008-09-12, 00:41:04,VALID,1003.97,VALID,0,VALID,95.628,VALID,0,VALID,23.5302,VALID,354,VALID,0,
2008-09-12, 00:42:04,VALID,1003.99,VALID,0,VALID,95.689,VALID,0,VALID,23.5691,VALID,354,VALID,0,
2008-09-12, 00:43:04,VALID,1004,VALID,0,VALID,95.6356,VALID,0,VALID,23.5478,VALID,354,VALID,0.129688,
2008-09-12, 00:44:04,VALID,1003.99,VALID,0,VALID,95.6128,VALID,0,VALID,23.5691,VALID,354,VALID,0,
2008-09-12, 00:45:04,VALID,1003.98,VALID,0,VALID,95.6128,VALID,0,VALID,23.5478,VALID,354,VALID,0,
2008-09-12, 00:46:04,VALID,1003.98,VALID,0,VALID,95.567,VALID,0,VALID,23.5691,VALID,354,VALID,0.0355469,
2008-09-12, 00:47:04,VALID,1003.99,VALID,0,VALID,95.4754,VALID,0,VALID,23.5302,VALID,354,VALID,0.178906,
2008-09-12, 00:48:04,VALID,1003.96,VALID,0,VALID,95.3763,VALID,0,VALID,23.4912,VALID,354,VALID,0.314453,
2008-09-12, 00:49:04,VALID,1003.96,VALID,0,VALID,95.4144,VALID,0,VALID,23.4505,VALID,354,VALID,0.452344,
2008-09-12, 00:50:04,VALID,1003.9,VALID,0,VALID,95.4144,VALID,0,VALID,23.4311,VALID,354,VALID,0.462109,
2008-09-12, 00:51:04,VALID,1003.92,VALID,0,VALID,95.3457,VALID,0,VALID,23.3727,VALID,354,VALID,0.465234,
2008-09-12, 00:52:04,VALID,1003.87,VALID,0,VALID,95.3763,VALID,0,VALID,23.3744,VALID,354,VALID,0.421094,
2008-09-12, 00:53:04,VALID,1003.83,VALID,0,VALID,95.4831,VALID,0,VALID,23.355,VALID,354,VALID,0.607031,
2008-09-12, 00:54:04,VALID,1003.82,VALID,0,VALID,95.5288,VALID,0,VALID,23.3744,VALID,354,VALID,0.555469,
2008-09-12, 00:55:04,VALID,1003.83,VALID,0,VALID,95.5288,VALID,0,VALID,23.3532,VALID,354,VALID,0.499219,
2008-09-12, 00:56:04,VALID,1003.82,VALID,0,VALID,95.5212,VALID,0,VALID,23.3532,VALID,354,VALID,0.530078,
2008-09-12, 00:57:04,VALID,1003.82,VALID,0,VALID,95.506,VALID,0,VALID,23.3337,VALID,354,VALID,0.492969,
2008-09-12, 00:58:04,VALID,1003.81,VALID,0,VALID,95.5288,VALID,0,VALID,23.3355,VALID,354,VALID,0.452344,
2008-09-12, 00:59:04,VALID,1003.79,VALID,0,VALID,95.5288,VALID,0,VALID,23.3143,VALID,354,VALID,0.378125,
2008-09-12, 01:00:04,VALID,1003.79,VALID,0,VALID,95.4983,VALID,0,VALID,23.2948,VALID,354,VALID,0.414844,
2008-09-12, 01:01:04,VALID,1003.77,VALID,0,VALID,95.5136,VALID,0,VALID,23.2754,VALID,354,VALID,0.363672,
2008-09-12, 01:02:04,VALID,1003.79,VALID,0,VALID,95.5594,VALID,0,VALID,23.2948,VALID,354,VALID,0.380859,
2008-09-12, 01:03:04,VALID,1003.77,VALID,0,VALID,95.5746,VALID,0,VALID,23.2966,VALID,354,VALID,0.207422,
2008-09-12, 01:04:04,VALID,1003.78,VALID,0,VALID,95.6738,VALID,0,VALID,23.2948,VALID,354,VALID,0.160938,
2008-09-12, 01:05:04,VALID,1003.76,VALID,0,VALID,95.6509,VALID,0,VALID,23.3143,VALID,354,VALID,0,
2008-09-12, 01:06:04,VALID,1003.74,VALID,0,VALID,95.628,VALID,0,VALID,23.2948,VALID,354,VALID,0,
2008-09-12, 01:07:04,VALID,1003.73,VALID,0,VALID,95.6051,VALID,0,VALID,23.2948,VALID,354,VALID,0,
2008-09-12, 01:08:04,VALID,1003.69,VALID,0,VALID,95.6433,VALID,0,VALID,23.3337,VALID,354,VALID,0,
2008-09-12, 01:09:04,VALID,1003.69,VALID,0,VALID,95.6204,VALID,0,VALID,23.3143,VALID,354,VALID,0,
2008-09-12, 01:10:04,VALID,1003.69,VALID,0,VALID,95.5746,VALID,0,VALID,23.2931,VALID,354,VALID,0.311328,
2008-09-12, 01:11:04,VALID,1003.7,VALID,0,VALID,95.567,VALID,0,VALID,23.2948,VALID,354,VALID,0.353125,
2008-09-12, 01:12:04,VALID,1003.68,VALID,0,VALID,95.5136,VALID,0,VALID,23.2559,VALID,354,VALID,0.41875,
2008-09-12, 01:13:04,VALID,1003.65,VALID,0,VALID,95.4144,VALID,0,VALID,23.1975,VALID,354,VALID,0.385938,
2008-09-12, 01:14:04,VALID,1003.64,VALID,0,VALID,95.4297,VALID,0,VALID,23.1586,VALID,354,VALID,0.362109,
2008-09-12, 01:15:04,VALID,1003.63,VALID,0,VALID,95.567,VALID,0,VALID,23.1586,VALID,354,VALID,0.296484,
2008-09-12, 01:16:04,VALID,1003.58,VALID,0,VALID,95.6662,VALID,0,VALID,23.1975,VALID,354,VALID,0.258594,
2008-09-12, 01:17:04,VALID,1003.59,VALID,0,VALID,95.7348,VALID,0,VALID,23.2364,VALID,354,VALID,0.233594,
2008-09-12, 01:18:04,VALID,1003.58,VALID,0,VALID,95.6662,VALID,0,VALID,23.2364,VALID,354,VALID,0.254297,
2008-09-12, 01:19:04,VALID,1003.55,VALID,0,VALID,95.5975,VALID,0,VALID,23.217,VALID,354,VALID,0.274609,
2008-09-12, 01:20:04,VALID,1003.61,VALID,0,VALID,95.5365,VALID,0,VALID,23.1568,VALID,354,VALID,0.324219,
2008-09-12, 01:21:04,VALID,1003.64,VALID,0,VALID,95.5136,VALID,0,VALID,23.1586,VALID,354,VALID,0.137891,
2008-09-12, 01:22:04,VALID,1003.57,VALID,0,VALID,95.5365,VALID,0,VALID,23.1391,VALID,354,VALID,0.175391,
2008-09-12, 01:23:04,VALID,1003.59,VALID,0,VALID,95.5212,VALID,0,VALID,23.1214,VALID,354,VALID,0.119531,
2008-09-12, 01:24:04,VALID,1003.6,VALID,0,VALID,95.4907,VALID,0,VALID,23.0807,VALID,354,VALID,0.203125,
2008-09-12, 01:25:04,VALID,1003.61,VALID,0,VALID,95.5136,VALID,0,VALID,23.0418,VALID,354,VALID,0.167187,
2008-09-12, 01:26:04,VALID,1003.57,VALID,0,VALID,95.5822,VALID,0,VALID,23.0613,VALID,354,VALID,0.213281,
2008-09-12, 01:27:04,VALID,1003.57,VALID,0,VALID,95.8493,VALID,0,VALID,23.1214,VALID,354,VALID,0,
2008-09-12, 01:28:04,VALID,1003.59,VALID,0,VALID,95.8721,VALID,0,VALID,23.1586,VALID,354,VALID,0,
2008-09-12, 01:29:04,VALID,1003.55,VALID,0,VALID,95.8798,VALID,0,VALID,23.217,VALID,354,VALID,0,
2008-09-12, 01:30:04,VALID,1003.57,VALID,0,VALID,95.895,VALID,0,VALID,23.2754,VALID,354,VALID,0,
2008-09-12, 01:31:04,VALID,1003.57,VALID,0,VALID,95.8264,VALID,0,VALID,23.2559,VALID,354,VALID,0,
2008-09-12, 01:32:04,VALID,1003.55,VALID,0,VALID,95.6814,VALID,0,VALID,23.2364,VALID,354,VALID,0,
2008-09-12, 01:33:04,VALID,1003.54,VALID,0,VALID,95.6204,VALID,0,VALID,23.1975,VALID,354,VALID,0,
2008-09-12, 01:34:04,VALID,1003.52,VALID,0,VALID,95.506,VALID,0,VALID,23.1197,VALID,354,VALID,0,
2008-09-12, 01:35:04,VALID,1003.52,VALID,0,VALID,95.4602,VALID,0,VALID,23.0807,VALID,354,VALID,0,
2008-09-12, 01:36:04,VALID,1003.48,VALID,0,VALID,95.4907,VALID,0,VALID,23.0825,VALID,354,VALID,0,
2008-09-12, 01:37:04,VALID,1003.48,VALID,0,VALID,95.5136,VALID,0,VALID,23.0224,VALID,354,VALID,0,
2008-09-12, 01:38:04,VALID,1003.49,VALID,0,VALID,95.7043,VALID,0,VALID,23.0418,VALID,354,VALID,0,
2008-09-12, 01:39:04,VALID,1003.53,VALID,0,VALID,95.8416,VALID,0,VALID,23.1002,VALID,354,VALID,0,
2008-09-12, 01:40:04,VALID,1003.51,VALID,0,VALID,95.834,VALID,0,VALID,23.1391,VALID,354,VALID,0,
2008-09-12, 01:41:04,VALID,1003.48,VALID,0,VALID,95.773,VALID,0,VALID,23.1374,VALID,354,VALID,0,
2008-09-12, 01:42:04,VALID,1003.52,VALID,0,VALID,95.6662,VALID,0,VALID,23.1197,VALID,354,VALID,0,
2008-09-12, 01:43:04,VALID,1003.51,VALID,0,VALID,95.5899,VALID,0,VALID,23.0807,VALID,354,VALID,0,
2008-09-12, 01:44:04,VALID,1003.5,VALID,0,VALID,95.5594,VALID,0,VALID,23.0418,VALID,354,VALID,0,
2008-09-12, 01:45:04,VALID,1003.53,VALID,0,VALID,95.6051,VALID,0,VALID,23.063,VALID,354,VALID,0,
2008-09-12, 01:46:04,VALID,1003.51,VALID,0,VALID,95.6662,VALID,0,VALID,23.063,VALID,354,VALID,0,
2008-09-12, 01:47:04,VALID,1003.51,VALID,0,VALID,95.7043,VALID,0,VALID,23.0613,VALID,354,VALID,0,
2008-09-12, 01:48:04,VALID,1003.48,VALID,0,VALID,95.7577,VALID,0,VALID,23.0825,VALID,354,VALID,0,
2008-09-12, 01:49:04,VALID,1003.49,VALID,0,VALID,95.8493,VALID,0,VALID,23.1002,VALID,354,VALID,0,
2008-09-12, 01:50:04,VALID,1003.47,VALID,0,VALID,95.8111,VALID,0,VALID,23.1214,VALID,354,VALID,0,
2008-09-12, 01:51:04,VALID,1003.49,VALID,0,VALID,95.7806,VALID,0,VALID,23.1214,VALID,354,VALID,0,
2008-09-12, 01:52:04,VALID,1003.55,VALID,0,VALID,95.6814,VALID,0,VALID,23.0807,VALID,354,VALID,0,
2008-09-12, 01:53:04,VALID,1003.53,VALID,0,VALID,95.628,VALID,0,VALID,23.063,VALID,354,VALID,0,
2008-09-12, 01:54:04,VALID,1003.52,VALID,0,VALID,95.567,VALID,0,VALID,23.0029,VALID,354,VALID,0,
2008-09-12, 01:55:04,VALID,1003.53,VALID,0,VALID,95.5822,VALID,0,VALID,22.9834,VALID,354,VALID,0,
2008-09-12, 01:56:04,VALID,1003.53,VALID,0,VALID,95.6204,VALID,0,VALID,22.9852,VALID,354,VALID,0,
2008-09-12, 01:57:04,VALID,1003.5,VALID,0,VALID,95.7043,VALID,0,VALID,22.964,VALID,354,VALID,0,
2008-09-12, 01:58:04,VALID,1003.51,VALID,0,VALID,95.8416,VALID,0,VALID,23.0241,VALID,354,VALID,0,
2008-09-12, 01:59:04,VALID,1003.45,VALID,0,VALID,95.9179,VALID,0,VALID,23.1019,VALID,354,VALID,0,
2008-09-12, 02:00:04,VALID,1003.45,VALID,0,VALID,95.9713,VALID,0,VALID,23.1391,VALID,354,VALID,0,
2008-09-12, 02:01:04,VALID,1003.43,VALID,0,VALID,95.9332,VALID,0,VALID,23.1586,VALID,354,VALID,0,
2008-09-12, 02:02:04,VALID,1003.44,VALID,0,VALID,95.7806,VALID,0,VALID,23.1197,VALID,354,VALID,0,
2008-09-12, 02:03:04,VALID,1003.43,VALID,0,VALID,95.628,VALID,0,VALID,23.0613,VALID,354,VALID,0,
2008-09-12, 02:04:04,VALID,1003.4,VALID,0,VALID,95.567,VALID,0,VALID,22.9834,VALID,354,VALID,0,
2008-09-12, 02:05:04,VALID,1003.42,VALID,0,VALID,95.5212,VALID,0,VALID,22.9445,VALID,354,VALID,0,
2008-09-12, 02:06:04,VALID,1003.42,VALID,0,VALID,95.506,VALID,0,VALID,22.8861,VALID,354,VALID,0,
2008-09-12, 02:07:04,VALID,1003.42,VALID,0,VALID,95.6128,VALID,0,VALID,22.8861,VALID,354,VALID,0,
2008-09-12, 02:08:04,VALID,1003.4,VALID,0,VALID,95.8187,VALID,0,VALID,22.9251,VALID,354,VALID,0,
2008-09-12, 02:09:04,VALID,1003.43,VALID,0,VALID,95.9179,VALID,0,VALID,23.0029,VALID,354,VALID,0,
2008-09-12, 02:10:04,VALID,1003.38,VALID,0,VALID,95.9103,VALID,0,VALID,23.0224,VALID,354,VALID,0,
2008-09-12, 02:11:04,VALID,1003.39,VALID,0,VALID,95.8645,VALID,0,VALID,23.0436,VALID,354,VALID,0,
2008-09-12, 02:12:04,VALID,1003.37,VALID,0,VALID,95.8493,VALID,0,VALID,23.0206,VALID,354,VALID,0,
2008-09-12, 02:13:04,VALID,1003.34,VALID,0,VALID,95.8187,VALID,0,VALID,23.0418,VALID,354,VALID,0,
2008-09-12, 02:14:04,VALID,1003.31,VALID,0,VALID,95.773,VALID,0,VALID,23.0418,VALID,354,VALID,0,
2008-09-12, 02:15:04,VALID,1003.32,VALID,0,VALID,95.689,VALID,0,VALID,23.0029,VALID,354,VALID,0,
2008-09-12, 02:16:04,VALID,1003.29,VALID,0,VALID,95.6509,VALID,0,VALID,22.9657,VALID,354,VALID,0,
2008-09-12, 02:17:04,VALID,1003.29,VALID,0,VALID,95.6204,VALID,0,VALID,22.9251,VALID,354,VALID,0,
2008-09-12, 02:18:04,VALID,1003.27,VALID,0,VALID,95.6585,VALID,0,VALID,22.8861,VALID,354,VALID,0,
2008-09-12, 02:19:04,VALID,1003.27,VALID,0,VALID,95.6738,VALID,0,VALID,22.8861,VALID,354,VALID,0,
2008-09-12, 02:20:04,VALID,1003.23,VALID,0,VALID,95.689,VALID,0,VALID,22.8455,VALID,354,VALID,0,
2008-09-12, 02:21:04,VALID,1003.24,VALID,0,VALID,95.7043,VALID,0,VALID,22.8667,VALID,354,VALID,0,
2008-09-12, 02:22:04,VALID,1003.26,VALID,0,VALID,95.8569,VALID,0,VALID,22.9073,VALID,354,VALID,0,
2008-09-12, 02:23:04,VALID,1003.26,VALID,0,VALID,95.9332,VALID,0,VALID,22.9445,VALID,354,VALID,0,
2008-09-12, 02:24:04,VALID,1003.24,VALID,0,VALID,96.0018,VALID,0,VALID,23.0436,VALID,354,VALID,0,
2008-09-12, 02:25:04,VALID,1003.23,VALID,0,VALID,96.0247,VALID,0,VALID,23.0807,VALID,354,VALID,0,
2008-09-12, 02:26:04,VALID,1003.17,VALID,0,VALID,96.0018,VALID,0,VALID,23.0807,VALID,354,VALID,0,
2008-09-12, 02:27:04,VALID,1003.18,VALID,0,VALID,95.9484,VALID,0,VALID,23.0613,VALID,354,VALID,0,
2008-09-12, 02:28:04,VALID,1003.19,VALID,0,VALID,95.9027,VALID,0,VALID,23.0418,VALID,354,VALID,0,
2008-09-12, 02:29:04,VALID,1003.16,VALID,0,VALID,95.689,VALID,0,VALID,23.0029,VALID,354,VALID,0,
2008-09-12, 02:30:04,VALID,1003.14,VALID,0,VALID,95.6433,VALID,0,VALID,22.9445,VALID,354,VALID,0,
2008-09-12, 02:31:04,VALID,1003.14,VALID,0,VALID,95.5899,VALID,0,VALID,22.8861,VALID,354,VALID,0,
2008-09-12, 02:32:04,VALID,1003.12,VALID,0,VALID,95.6356,VALID,0,VALID,22.8684,VALID,354,VALID,0,
2008-09-12, 02:33:04,VALID,1003.09,VALID,0,VALID,95.8187,VALID,0,VALID,22.8667,VALID,354,VALID,0,
2008-09-12, 02:34:04,VALID,1003.1,VALID,0,VALID,95.9103,VALID,0,VALID,22.9056,VALID,354,VALID,0,
2008-09-12, 02:35:04,VALID,1003.09,VALID,0,VALID,95.9255,VALID,0,VALID,22.9445,VALID,354,VALID,0,
2008-09-12, 02:36:04,VALID,1003.1,VALID,0,VALID,95.9255,VALID,0,VALID,22.9852,VALID,354,VALID,0,
2008-09-12, 02:37:04,VALID,1003.09,VALID,0,VALID,95.9027,VALID,0,VALID,22.9834,VALID,354,VALID,0,
2008-09-12, 02:38:04,VALID,1003.08,VALID,0,VALID,95.8569,VALID,0,VALID,22.964,VALID,354,VALID,0,
2008-09-12, 02:39:04,VALID,1003.06,VALID,0,VALID,95.8798,VALID,0,VALID,23.0046,VALID,354,VALID,0,
2008-09-12, 02:40:04,VALID,1003.05,VALID,0,VALID,95.8569,VALID,0,VALID,22.9852,VALID,354,VALID,0,
2008-09-12, 02:41:04,VALID,1003.08,VALID,0,VALID,95.8493,VALID,0,VALID,22.964,VALID,354,VALID,0,
2008-09-12, 02:42:04,VALID,1003.06,VALID,0,VALID,95.8645,VALID,0,VALID,22.964,VALID,354,VALID,0,
2008-09-12, 02:43:04,VALID,1003.05,VALID,0,VALID,95.9179,VALID,0,VALID,22.964,VALID,354,VALID,0,
2008-09-12, 02:44:04,VALID,1003.02,VALID,0,VALID,95.895,VALID,0,VALID,22.9834,VALID,354,VALID,0,
2008-09-12, 02:45:04,VALID,1003.04,VALID,0,VALID,95.9561,VALID,0,VALID,23.0029,VALID,354,VALID,0,
2008-09-12, 02:46:04,VALID,1003.03,VALID,0,VALID,95.9789,VALID,0,VALID,23.0224,VALID,354,VALID,0,
2008-09-12, 02:47:04,VALID,1003.04,VALID,0,VALID,96.0171,VALID,0,VALID,23.0613,VALID,354,VALID,0,
2008-09-12, 02:48:04,VALID,1003.01,VALID,0,VALID,96.0018,VALID,0,VALID,23.0807,VALID,354,VALID,0,
2008-09-12, 02:49:04,VALID,1003.02,VALID,0,VALID,95.9408,VALID,0,VALID,23.0825,VALID,354,VALID,0,
2008-09-12, 02:50:04,VALID,1003.03,VALID,0,VALID,95.9027,VALID,0,VALID,23.0224,VALID,354,VALID,0,
2008-09-12, 02:51:04,VALID,1003.04,VALID,0,VALID,95.8111,VALID,0,VALID,23.0029,VALID,354,VALID,0,
2008-09-12, 02:52:04,VALID,1003.04,VALID,0,VALID,95.8111,VALID,0,VALID,22.9834,VALID,354,VALID,0,
2008-09-12, 02:53:04,VALID,1003.06,VALID,0,VALID,95.8111,VALID,0,VALID,22.9834,VALID,354,VALID,0,
2008-09-12, 02:54:04,VALID,1003.05,VALID,0,VALID,95.6967,VALID,0,VALID,22.9039,VALID,354,VALID,0,
2008-09-12, 02:55:04,VALID,1003.02,VALID,0,VALID,95.6738,VALID,0,VALID,22.8879,VALID,354,VALID,0,
2008-09-12, 02:56:04,VALID,1003.01,VALID,0,VALID,95.7577,VALID,0,VALID,22.8879,VALID,354,VALID,0,
2008-09-12, 02:57:04,VALID,1003.01,VALID,0,VALID,95.7882,VALID,0,VALID,22.8667,VALID,354,VALID,0,
2008-09-12, 02:58:04,VALID,1003,VALID,0,VALID,95.7119,VALID,0,VALID,22.8278,VALID,354,VALID,0,
2008-09-12, 02:59:04,VALID,1002.99,VALID,0,VALID,95.6585,VALID,0,VALID,22.7906,VALID,354,VALID,0,
2008-09-12, 03:00:04,VALID,1003,VALID,0,VALID,95.6204,VALID,0,VALID,22.7322,VALID,354,VALID,0,
2008-09-12, 03:01:04,VALID,1003.01,VALID,0,VALID,95.6433,VALID,0,VALID,22.6915,VALID,354,VALID,0,
2008-09-12, 03:02:04,VALID,1002.99,VALID,0,VALID,95.6738,VALID,0,VALID,22.6526,VALID,354,VALID,0,
2008-09-12, 03:03:04,VALID,1002.99,VALID,0,VALID,95.7043,VALID,0,VALID,22.6526,VALID,354,VALID,0,
2008-09-12, 03:04:04,VALID,1003.02,VALID,0,VALID,95.7501,VALID,0,VALID,22.6526,VALID,354,VALID,0,
2008-09-12, 03:05:04,VALID,1003.02,VALID,0,VALID,95.7882,VALID,0,VALID,22.6526,VALID,354,VALID,0,
2008-09-12, 03:06:04,VALID,1003.04,VALID,0,VALID,95.8187,VALID,0,VALID,22.6721,VALID,354,VALID,0,
2008-09-12, 03:07:04,VALID,1003.03,VALID,0,VALID,95.8187,VALID,0,VALID,22.6526,VALID,354,VALID,0,
2008-09-12, 03:08:04,VALID,1003.03,VALID,0,VALID,95.7959,VALID,0,VALID,22.6332,VALID,354,VALID,0,
2008-09-12, 03:09:04,VALID,1003.03,VALID,0,VALID,95.8645,VALID,0,VALID,22.6526,VALID,354,VALID,0,
2008-09-12, 03:10:04,VALID,1002.99,VALID,0,VALID,95.9561,VALID,0,VALID,22.7305,VALID,354,VALID,0,
2008-09-12, 03:11:04,VALID,1003,VALID,0,VALID,96.0018,VALID,0,VALID,22.7694,VALID,354,VALID,0,
2008-09-12, 03:12:04,VALID,1002.97,VALID,0,VALID,96.0018,VALID,0,VALID,22.8083,VALID,354,VALID,0,
2008-09-12, 03:13:04,VALID,1002.95,VALID,0,VALID,95.9789,VALID,0,VALID,22.8083,VALID,354,VALID,0,
2008-09-12, 03:14:04,VALID,1002.94,VALID,0,VALID,95.9789,VALID,0,VALID,22.8066,VALID,354,VALID,0,
2008-09-12, 03:15:04,VALID,1002.9,VALID,0,VALID,95.9637,VALID,0,VALID,22.8083,VALID,354,VALID,0,
2008-09-12, 03:16:04,VALID,1002.89,VALID,0,VALID,95.834,VALID,0,VALID,22.7888,VALID,354,VALID,0,
2008-09-12, 03:17:04,VALID,1002.88,VALID,0,VALID,95.7501,VALID,0,VALID,22.7322,VALID,354,VALID,0,
2008-09-12, 03:18:04,VALID,1002.89,VALID,0,VALID,95.6967,VALID,0,VALID,22.6721,VALID,354,VALID,0,
2008-09-12, 03:19:04,VALID,1002.86,VALID,0,VALID,95.7043,VALID,0,VALID,22.6332,VALID,354,VALID,0,
2008-09-12, 03:20:04,VALID,1002.85,VALID,0,VALID,95.7119,VALID,0,VALID,22.6154,VALID,354,VALID,0,
2008-09-12, 03:21:04,VALID,1002.87,VALID,0,VALID,95.7424,VALID,0,VALID,22.6154,VALID,354,VALID,0,
2008-09-12, 03:22:04,VALID,1002.86,VALID,0,VALID,95.7806,VALID,0,VALID,22.5748,VALID,354,VALID,0,
2008-09-12, 03:23:04,VALID,1002.86,VALID,0,VALID,95.8416,VALID,0,VALID,22.5748,VALID,354,VALID,0,
2008-09-12, 03:24:04,VALID,1002.86,VALID,0,VALID,95.9713,VALID,0,VALID,22.612,VALID,354,VALID,0,
2008-09-12, 03:25:04,VALID,1002.82,VALID,0,VALID,96.0171,VALID,0,VALID,22.6721,VALID,354,VALID,0,
2008-09-12, 03:26:04,VALID,1002.78,VALID,0,VALID,96.0629,VALID,0,VALID,22.7305,VALID,354,VALID,0,
2008-09-12, 03:27:04,VALID,1002.8,VALID,0,VALID,96.04,VALID,0,VALID,22.7499,VALID,354,VALID,0,
2008-09-12, 03:28:04,VALID,1002.79,VALID,0,VALID,95.9866,VALID,0,VALID,22.711,VALID,354,VALID,0,
2008-09-12, 03:29:04,VALID,1002.79,VALID,0,VALID,95.9103,VALID,0,VALID,22.6721,VALID,354,VALID,0,
2008-09-12, 03:30:04,VALID,1002.8,VALID,0,VALID,95.8416,VALID,0,VALID,22.6721,VALID,354,VALID,0,
2008-09-12, 03:31:04,VALID,1002.79,VALID,0,VALID,95.8111,VALID,0,VALID,22.6526,VALID,358,VALID,0,
2008-09-12, 03:32:04,VALID,1002.82,VALID,0,VALID,95.7196,VALID,0,VALID,22.5748,VALID,5,VALID,0,
2008-09-12, 03:33:04,VALID,1002.81,VALID,0,VALID,95.6585,VALID,0,VALID,22.5164,VALID,5,VALID,0,
2008-09-12, 03:34:04,VALID,1002.83,VALID,0,VALID,95.689,VALID,0,VALID,22.4775,VALID,5,VALID,0,
2008-09-12, 03:35:04,VALID,1002.87,VALID,0,VALID,95.6967,VALID,0,VALID,22.458,VALID,5,VALID,0,
2008-09-12, 03:36:04,VALID,1002.87,VALID,0,VALID,95.7272,VALID,0,VALID,22.458,VALID,5,VALID,0,
2008-09-12, 03:37:04,VALID,1002.86,VALID,0,VALID,95.8798,VALID,0,VALID,22.4775,VALID,5,VALID,0,
2008-09-12, 03:38:04,VALID,1002.85,VALID,0,VALID,95.9408,VALID,0,VALID,22.497,VALID,5,VALID,0,
2008-09-12, 03:39:04,VALID,1002.88,VALID,0,VALID,95.9713,VALID,0,VALID,22.5553,VALID,5,VALID,0,
2008-09-12, 03:40:04,VALID,1002.83,VALID,0,VALID,95.9866,VALID,0,VALID,22.5553,VALID,5,VALID,0,
2008-09-12, 03:41:04,VALID,1002.83,VALID,0,VALID,96.0018,VALID,0,VALID,22.5748,VALID,5,VALID,0,
2008-09-12, 03:42:04,VALID,1002.85,VALID,0,VALID,95.9713,VALID,0,VALID,22.6154,VALID,5,VALID,0,
2008-09-12, 03:43:04,VALID,1002.85,VALID,0,VALID,95.9942,VALID,0,VALID,22.5942,VALID,5,VALID,0,
2008-09-12, 03:44:04,VALID,1002.85,VALID,0,VALID,95.9332,VALID,0,VALID,22.5942,VALID,5,VALID,0,
2008-09-12, 03:45:04,VALID,1002.86,VALID,0,VALID,95.9103,VALID,0,VALID,22.5748,VALID,5,VALID,0,
2008-09-12, 03:46:04,VALID,1002.86,VALID,0,VALID,95.9103,VALID,0,VALID,22.5748,VALID,5,VALID,0,
2008-09-12, 03:47:04,VALID,1002.87,VALID,0,VALID,95.8798,VALID,0,VALID,22.5553,VALID,5,VALID,0,
2008-09-12, 03:48:04,VALID,1002.83,VALID,0,VALID,95.9942,VALID,0,VALID,22.5553,VALID,5,VALID,0,
2008-09-12, 03:49:04,VALID,1002.83,VALID,0,VALID,96.0629,VALID,0,VALID,22.6332,VALID,5,VALID,0,
2008-09-12, 03:50:04,VALID,1002.8,VALID,0,VALID,96.0705,VALID,0,VALID,22.6721,VALID,5,VALID,0,
2008-09-12, 03:51:04,VALID,1002.83,VALID,0,VALID,96.0552,VALID,0,VALID,22.711,VALID,5,VALID,0,
2008-09-12, 03:52:04,VALID,1002.84,VALID,0,VALID,96.0552,VALID,0,VALID,22.711,VALID,5,VALID,0,
2008-09-12, 03:53:04,VALID,1002.84,VALID,0,VALID,96.0018,VALID,0,VALID,22.6704,VALID,5,VALID,0,
2008-09-12, 03:54:04,VALID,1002.84,VALID,0,VALID,95.895,VALID,0,VALID,22.612,VALID,5,VALID,0,
2008-09-12, 03:55:04,VALID,1002.87,VALID,0,VALID,95.8569,VALID,0,VALID,22.6332,VALID,5,VALID,0,
2008-09-12, 03:56:04,VALID,1002.88,VALID,0,VALID,95.8721,VALID,0,VALID,22.6137,VALID,5,VALID,0,
2008-09-12, 03:57:04,VALID,1002.9,VALID,0,VALID,95.8569,VALID,0,VALID,22.5942,VALID,5,VALID,0,
2008-09-12, 03:58:04,VALID,1002.89,VALID,0,VALID,95.895,VALID,0,VALID,22.5942,VALID,5,VALID,0,